Theta_e
337 337 337 338 338 338 336 333 330 331 332 322 327 336 336 337 340 342 342 352 352 351 349 349 349 350 348 350 349 347 345 342 339 335 333 332 332 332 332 332 332 333 334
336 335 336 337 337 337 336 334 329 329 327 320 320 332 334 335 337 338 339 344 352 352 350 348 347 346 346 345 345 343 339 335 331 330 330 331 331 331 331 331 332 332 332
339 338 335 335 337 337 336 334 333 327 321 320 319 324 330 331 334 335 335 337 343 350 349 346 345 345 344 343 341 336 332 331 330 329 330 331 331 331 331 330 330 331 330
341 340 337 335 335 336 334 332 330 324 317 317 319 320 324 329 331 331 335 336 338 341 346 347 345 342 340 337 333 332 331 331 329 329 329 328 329 329 330 330 331 331 331
343 340 339 335 337 338 334 327 324 323 319 319 321 320 322 325 329 333 333 335 336 338 337 344 345 342 338 334 334 333 332 331 330 330 329 328 328 329 330 331 331 331 331
343 341 340 338 335 339 338 333 327 329 325 320 322 323 322 321 324 325 330 334 334 336 335 335 335 335 341 337 336 335 334 333 332 331 331 331 330 330 331 331 331 331 330
342 341 340 338 334 334 336 340 331 329 325 322 322 320 321 323 321 322 321 327 331 335 334 333 332 330 333 342 340 339 336 335 333 332 335 334 332 331 331 330 330 329 329
341 341 341 339 335 335 335 335 332 329 326 321 317 318 316 318 321 322 320 320 324 331 334 334 331 329 327 330 333 341 337 336 335 333 334 333 329 329 329 328 328 328 328
343 342 340 338 336 335 335 336 333 329 326 325 320 317 312 312 315 321 321 321 318 321 330 333 332 330 325 326 332 335 340 339 336 335 331 328 328 327 327 326 326 326 327
342 342 340 337 336 335 333 335 334 330 327 325 324 324 319 318 317 315 320 322 321 320 320 327 332 331 328 325 329 333 336 339 337 337 330 326 326 325 325 325 326 327 328
342 340 340 339 337 336 336 333 335 331 330 328 325 320 319 319 319 317 314 316 320 322 322 320 327 331 330 327 324 327 335 335 337 334 328 324 323 323 323 325 326 327 329
341 342 340 337 337 335 334 336 336 334 331 330 328 323 321 318 317 316 313 313 313 318 322 323 322 325 328 328 330 331 331 332 332 329 327 324 321 320 322 324 327 328 331
341 341 338 336 336 336 336 335 335 335 333 331 330 329 325 322 322 320 317 314 314 315 318 322 323 323 326 326 327 334 334 331 328 324 323 322 321 319 321 323 325 326 330
336 340 341 341 339 337 338 337 336 337 335 334 333 330 329 325 323 323 320 316 311 309 313 318 320 322 323 326 329 335 332 329 325 322 320 319 320 319 319 321 323 325 327
333 334 335 339 342 341 338 338 337 337 336 335 334 331 329 327 324 325 324 320 316 309 308 313 318 320 322 326 328 331 325 328 325 321 318 318 318 318 318 319 320 322 324
327 329 330 332 334 338 338 336 336 337 336 333 333 331 329 328 328 326 326 327 321 316 310 312 314 321 321 324 327 324 322 326 324 321 318 318 316 316 317 318 320 321 321
320 326 327 329 332 336 337 334 334 333 332 332 333 332 331 330 328 328 330 330 328 323 315 319 314 319 318 317 323 317 321 318 320 321 320 318 316 315 316 317 319 319 319
316 322 326 327 329 334 334 336 332 332 331 331 333 335 333 334 331 331 331 330 328 327 320 315 312 319 318 315 318 317 319 320 316 322 320 318 315 315 315 315 317 316 314
314 316 317 321 326 328 331 334 333 334 333 330 330 332 332 331 329 329 328 326 326 326 316 311 310 317 317 314 314 315 315 315 318 322 319 318 315 315 315 314 315 313 310
312 314 316 317 320 324 327 330 332 332 332 331 330 331 331 330 329 327 324 323 323 321 317 314 313 315 314 314 313 312 312 313 315 320 321 317 315 315 314 313 314 313 309
311 314 316 316 316 318 324 318 324 326 326 326 327 330 330 330 328 326 325 322 321 318 317 313 312 310 309 312 312 312 311 311 312 313 310 310 311 311 312 313 315 316 310
308 311 312 312 311 315 309 305 312 318 321 322 321 323 325 324 325 319 317 318 322 320 316 314 312 310 309 310 312 312 310 309 308 315 311 310 311 309 312 313 314 312 309
305 306 308 310 310 310 306 304 304 315 316 318 320 320 323 329 323 326 321 318 316 313 316 317 314 313 312 311 311 309 309 309 309 314 313 309 312 310 312 313 310 310 308
303 303 305 308 309 312 305 299 300 309 312 314 316 318 319 322 325 323 324 322 324 323 322 320 320 322 318 319 314 313 313 313 314 314 318 312 311 311 312 313 309 308 306
302 303 306 306 307 309 305 302 302 310 312 313 316 317 317 319 308 303 319 320 322 324 321 312 311 310 308 308 315 317 313 314 312 314 316 315 312 312 311 310 311 307 305
302 304 306 306 306 306 304 302 303 306 309 311 311 311 307 305 301 300 311 314 314 317 323 323 323 315 310 312 308 322 321 316 314 312 317 315 313 312 310 311 310 309 306
Wind_Speed
5 3 4 3 3 1 3 4 4 4 5 2 1 4 5 4 5 3 2 7 6 6 7 7 5 5 5 6 8 7 7 6 6 5 4 4 5 5 5 5 5 6 7
4 4 4 4 4 3 3 4 5 4 4 0 4 4 5 5 5 3 2 2 6 7 7 7 6 6 5 5 6 6 6 6 5 5 4 4 5 5 5 5 5 6 7
6 6 4 4 5 4 5 4 5 1 2 2 3 3 3 4 4 4 3 2 3 7 7 8 7 7 7 5 6 6 6 5 5 4 4 4 4 5 5 5 6 7 7
7 6 4 5 4 4 2 3 3 2 2 3 2 3 4 4 4 5 3 3 3 2 6 7 7 7 7 7 6 6 5 5 4 3 2 2 2 3 4 5 6 8 9
9 8 6 5 5 4 3 2 1 2 2 5 3 2 3 4 5 4 5 5 5 4 3 6 7 7 8 8 7 7 6 6 5 4 3 1 1 3 4 6 8 9 10
9 6 5 6 5 3 3 3 2 2 4 3 1 2 2 1 2 3 5 4 4 5 4 5 3 4 9 10 10 9 8 8 7 6 4 4 4 5 6 7 9 11 11
7 6 7 5 5 5 5 5 4 5 3 1 2 2 3 3 3 4 3 4 5 5 5 5 3 3 4 12 11 11 11 9 8 7 5 5 6 6 6 7 9 11 11
7 9 11 8 6 4 5 6 5 3 2 4 3 2 4 5 3 4 4 4 6 4 5 6 5 6 5 4 6 11 12 11 9 7 3 3 6 5 6 8 9 11 12
8 11 12 7 6 5 6 5 6 7 5 3 4 5 1 4 2 2 3 4 5 4 5 5 6 6 6 5 7 9 13 11 11 8 4 4 5 5 7 8 9 11 13
5 6 2 8 9 5 4 5 5 4 4 5 1 3 1 4 3 4 2 3 4 6 6 5 6 7 7 6 11 13 12 12 11 8 3 3 4 6 8 10 10 12 13
5 4 5 4 5 3 4 4 4 6 4 4 4 3 2 1 2 3 4 4 2 5 5 5 7 7 8 8 6 8 14 11 10 7 4 2 4 5 7 9 11 11 11
4 2 3 5 3 4 4 6 6 5 6 5 4 4 5 4 4 3 3 5 4 5 3 4 6 7 7 7 11 13 13 11 10 8 7 6 3 3 5 9 10 10 10
3 4 3 4 4 6 6 6 3 5 5 4 6 5 4 4 3 3 3 3 4 3 3 4 5 5 5 6 7 13 14 13 12 10 8 7 6 3 4 6 7 10 12
5 7 5 4 6 5 6 6 5 5 5 6 7 6 4 4 4 3 3 4 2 3 2 6 3 5 5 6 9 13 6 13 13 11 10 9 7 6 5 4 6 11 11
5 7 8 8 7 4 6 7 6 8 6 6 6 6 4 4 4 4 4 4 4 3 4 3 4 3 4 5 7 7 6 13 13 12 11 9 8 8 7 5 3 6 8
6 6 5 6 8 7 4 6 6 6 6 4 4 5 5 3 4 3 4 3 3 4 4 4 4 4 3 3 6 6 6 13 13 12 11 11 10 8 7 7 3 1 4
7 6 6 5 6 7 5 5 6 5 6 5 4 5 5 4 4 4 3 4 5 4 5 4 3 2 2 4 4 4 6 6 6 13 13 12 10 9 6 7 4 2 1
8 7 6 6 5 5 6 5 5 5 5 5 5 6 5 4 5 5 4 5 6 6 5 7 4 4 5 3 4 5 5 4 5 11 13 13 11 10 9 7 6 4 3
7 7 6 7 7 6 5 5 5 5 5 5 6 5 6 5 5 4 4 5 6 4 4 4 5 2 2 2 2 3 3 4 4 9 13 13 14 11 8 8 7 6 5
7 7 7 6 6 6 6 5 5 5 5 4 6 6 6 6 7 6 5 6 5 4 3 4 4 4 2 1 3 3 3 2 3 4 7 8 11 15 9 8 8 7 6
8 6 6 7 7 6 4 6 5 5 4 5 7 6 6 7 8 7 4 5 5 3 3 4 2 2 3 3 6 4 4 2 3 4 3 3 2 3 7 8 8 10 9
7 7 7 6 7 5 11 12 5 5 5 4 5 6 5 7 6 7 8 7 6 5 4 4 3 4 5 4 3 5 5 4 4 5 5 5 9 5 4 6 12 11 10
5 7 7 6 7 6 9 10 9 4 5 5 5 4 5 5 7 5 7 6 6 9 8 5 5 6 4 6 6 5 6 5 6 4 5 4 4 8 7 6 11 11 11
5 5 6 6 6 5 8 9 11 6 5 6 5 5 5 6 7 5 4 3 6 6 7 6 8 9 8 6 7 7 8 6 2 1 4 5 4 4 6 6 14 14 12
5 5 5 7 6 7 8 7 7 6 6 7 6 5 4 6 7 7 4 4 7 9 8 10 13 12 12 12 9 5 4 5 4 4 6 4 4 3 2 3 6 15 15
6 5 6 6 7 7 11 9 4 4 5 6 6 6 3 4 7 3 4 5 7 11 8 7 4 6 11 10 11 10 7 8 4 3 5 5 4 5 3 3 5 7 7
Wind_Direction
246 251 247 247 253 219 257 270 275 294 318 359 266 150 141 143 157 165 171 171 173 178 177 171 157 148 153 133 120 118 116 112 107 93 78 63 50 39 28 19 10 1 3
241 253 264 257 252 215 228 237 245 256 274 288 244 198 169 169 180 167 166 182 179 183 178 170 164 148 147 151 144 135 130 122 109 99 85 66 55 43 32 20 17 3 2
206 245 247 262 254 232 236 236 252 296 293 314 198 208 190 188 178 179 189 199 207 195 189 177 171 162 155 163 156 147 135 125 117 112 93 74 56 44 28 12 3 355 351
196 215 226 239 240 244 212 219 211 223 247 259 212 178 204 189 207 192 195 200 205 203 197 190 187 177 170 172 168 158 155 151 147 146 132 88 42 20 359 342 338 337 335
206 204 220 229 230 216 195 165 163 136 193 243 260 218 206 215 200 184 200 206 205 203 189 213 200 192 188 180 188 184 187 185 187 197 204 235 315 327 321 321 321 324 326
209 203 231 217 195 207 170 152 174 179 232 217 289 309 301 258 197 217 218 206 211 210 201 208 206 217 205 202 206 207 207 211 212 220 240 265 284 306 314 315 320 319 321
209 177 227 230 192 187 188 175 163 199 251 126 57 342 316 247 231 238 226 214 220 215 207 214 200 220 229 219 219 219 223 225 229 240 240 277 296 298 303 314 317 318 318
186 204 218 222 193 180 194 184 175 163 216 171 139 81 340 327 301 213 196 199 219 208 218 221 204 216 226 234 228 228 230 236 241 248 253 299 304 306 309 317 321 318 317
208 208 212 209 219 189 197 192 175 174 191 192 193 142 101 247 320 340 264 210 208 207 222 218 217 213 213 224 236 239 236 236 244 250 273 309 301 310 317 318 328 322 324
255 240 281 216 219 196 202 222 176 176 147 186 199 212 140 150 185 330 324 283 217 220 217 218 223 219 210 217 227 229 235 231 234 247 277 303 296 321 327 330 338 333 334
236 109 231 279 263 222 209 246 217 190 182 168 174 154 176 172 112 156 276 305 305 248 230 206 217 220 211 213 216 223 227 227 210 201 187 194 298 328 342 338 347 342 342
309 143 221 240 257 263 210 221 253 214 192 199 192 185 177 178 187 172 218 253 246 281 254 220 216 223 212 207 216 215 216 212 194 190 189 167 192 326 3 349 1 349 349
356 353 279 253 243 219 227 230 217 223 220 212 206 214 200 199 165 169 169 224 235 280 293 239 230 224 212 197 209 202 204 194 178 174 183 188 173 127 41 13 14 348 352
337 329 326 281 242 229 221 207 218 232 202 214 221 206 209 177 176 201 209 153 279 275 291 248 245 229 219 195 208 195 190 175 167 167 178 186 185 141 97 53 1 351 351
328 342 334 322 324 239 219 215 222 228 203 214 221 195 191 189 168 184 209 176 203 236 267 272 252 231 226 195 196 176 174 173 167 164 177 184 202 151 122 102 31 355 349
338 333 337 335 329 323 249 213 229 239 198 210 199 195 202 175 177 200 203 216 212 224 235 213 259 242 235 211 193 175 170 165 162 168 178 190 199 167 135 129 141 50 344
337 340 339 335 331 326 319 243 242 227 216 198 196 193 209 181 195 194 205 224 228 228 234 277 244 269 244 195 168 147 158 151 164 177 187 192 191 170 149 144 164 156 250
322 329 332 335 340 341 339 307 277 277 251 230 220 197 208 182 218 215 218 224 235 231 208 244 249 247 226 213 164 158 165 163 168 189 196 195 185 176 157 172 175 180 202
316 321 339 341 336 338 333 328 320 296 264 248 223 212 213 200 214 217 218 220 237 222 203 207 249 226 230 179 133 118 168 162 196 188 189 208 177 176 165 187 195 192 202
329 320 321 329 342 337 335 328 309 305 305 275 262 227 219 222 227 213 209 222 238 237 203 211 220 206 200 209 113 141 179 190 173 170 195 194 204 161 169 198 213 204 200
347 325 323 324 337 341 339 340 341 331 317 310 293 271 254 248 229 230 195 227 214 220 214 217 210 193 202 179 187 173 180 156 222 166 154 143 208 239 163 206 219 218 204
342 344 342 331 332 328 334 342 355 326 314 295 288 297 280 266 257 265 248 245 229 210 208 189 207 210 215 206 167 176 146 146 217 192 149 220 161 202 234 185 196 201 198
331 335 330 332 331 321 331 347 359 323 305 304 304 305 300 274 250 256 271 274 256 232 229 188 208 218 233 200 170 175 181 174 201 187 147 195 207 189 181 195 192 197 192
306 303 309 319 316 307 321 339 344 311 315 300 281 278 279 287 282 276 271 261 268 255 236 216 228 247 229 223 198 192 198 199 57 128 176 193 157 227 162 183 179 193 188
306 297 291 306 310 305 304 314 335 317 307 296 299 303 318 308 348 357 293 303 293 276 249 220 234 250 247 231 195 150 183 148 209 205 192 162 173 135 186 190 172 189 184
265 283 293 288 283 286 298 303 306 280 281 283 286 275 288 316 331 14 334 323 287 278 284 276 221 253 244 240 239 204 186 203 176 180 212 160 136 140 208 204 161 170 183